FW9604 Weather Reports


time (UTC)temp
F
wind
direction
speed
knots
gust
knots
rain 1hr
in
rain 24hr
in
rain mn
in
humidity
%
barometer
mb
20260505183027 50 14 2.6 9.6 0.00 0.00 0.00 75 1014.8
20260505181530 51 342 2.6 8.7 0.00 0.00 0.00 77 1014.7
20260505180030 51 49 3.5 10.4 0.00 0.00 0.00 77 1014.9
20260505174531 52 336 3.5 10.4 0.00 0.00 0.00 78 1015.0
20260505173040 52 28 4.3 9.6 0.00 0.00 0.00 76 1015.0
20260505171528 52 15 3.5 9.6 0.00 0.00 0.00 76 1015.1
20260505170029 53 9 4.3 9.6 0.00 0.00 0.00 75 1015.0
20260505164546 53 355 2.6 9.6 0.00 0.00 0.00 74 1015.2
20260505163028 53 305 2.6 8.7 0.00 0.00 0.00 74 1015.1
20260505161530 53 74 2.6 9.6 0.00 0.00 0.00 74 1015.2
20260505153044 55 319 2.6 10.4 0.00 0.00 0.00 75 1015.2
20260505151539 55 269 2.6 9.6 0.00 0.00 0.00 75 1015.2
20260505124531 57 360 2.6 8.7 0.00 0.00 0.00 71 1015.4
20260505123030 58 5 2.6 8.7 0.00 0.00 0.00 73 1015.4
20260505121531 58 76 2.6 9.6 0.00 0.00 0.00 71 1015.3
20260505120030 59 102 1.7 7.0 0.00 0.00 0.00 73 1015.4
20260505114537 58 300 1.7 11.3 0.00 0.00 0.00 75 1015.4
20260505113029 57 316 2.6 8.7 0.00 0.00 0.00 74 1015.4
20260505111533 57 351 2.6 7.8 0.00 0.00 0.00 75 1015.5
20260505100041 58 280 3.5 7.8 0.00 0.00 0.00 73 1015.5
20260505094531 58 63 1.7 7.0 0.00 0.00 0.00 75 1015.5
20260505093033 58 164 1.7 7.0 0.00 0.00 0.00 76 1015.5
20260505091527 57 286 1.7 7.0 0.00 0.00 0.00 76 1015.7
20260505090048 57 330 1.7 7.8 0.00 0.00 0.00 77 1015.6
20260505084536 56 327 1.7 8.7 0.00 0.00 0.00 78 1015.6
20260505083040 56 326 2.6 7.0 0.00 0.00 0.00 77 1015.6
20260505081548 56 121 2.6 9.6 0.00 0.00 0.00 77 1015.7
20260505080038 56 310 1.7 7.0 0.00 0.00 0.00 78 1015.5
20260505074527 56 344 1.7 7.0 0.00 0.00 0.00 79 1015.5
20260505073030 55 355 1.7 5.2 0.00 0.00 0.00 80 1015.5
20260505071531 54 292 0.9 6.1 0.00 0.00 0.00 81 1015.6
20260505070031 53 323 0.9 7.0 0.00 0.00 0.00 82 1015.5
20260505064527 52 261 1.7 8.7 0.00 0.00 0.00 83 1015.5
20260505063035 52 352 1.7 7.0 0.00 0.00 0.00 84 1015.6
20260505061538 51 257 1.7 7.8 0.00 0.00 0.00 84 1015.4
20260505060028 51 321 1.7 7.0 0.00 0.00 0.00 85 1015.4
20260505054530 50 333 1.7 7.8 0.00 0.00 0.00 85 1015.4
20260505053030 50 346 2.6 8.7 0.00 0.00 0.00 86 1015.4
20260505051530 50 304 1.7 7.8 0.00 0.00 0.00 87 1015.2
20260505041530 50 9 2.6 9.6 0.00 0.00 0.00 88 1015.1
20260505040029 50 265 2.6 7.0 0.00 0.00 0.00 87 1015.1
20260505034529 50 311 1.7 7.0 0.00 0.00 0.00 87 1015.1
20260505033035 50 0 2.6 7.0 0.00 0.00 0.00 86 1015.1
20260505031530 51 309 2.6 7.8 0.00 0.00 0.00 86 1015.2
20260505030028 52 290 2.6 8.7 0.00 0.00 0.00 85 1015.1
20260505024550 52 254 0.9 7.0 0.00 0.00 0.00 85 1015.0
20260505023038 52 308 2.6 8.7 0.00 0.00 0.00 85 1014.9
20260505021544 52 311 1.7 5.2 0.00 0.00 0.00 85 1014.8
20260505020030 52 227 0.9 10.4 0.00 0.00 0.00 85 1014.7
20260505014530 52 349 1.7 7.0 0.00 0.00 0.00 86 1015.0
20260505013029 52 13 1.7 7.8 0.00 0.00 0.00 87 1015.2
20260505011544 52 341 2.6 7.0 0.00 0.00 0.00 87 1015.3
20260505010030 52 327 1.7 7.0 0.00 0.00 0.00 87 1015.3
20260505004537 51 345 1.7 6.1 0.00 0.00 0.00 87 1015.5
20260505003028 51 14 1.7 7.0 0.00 0.00 0.00 86 1015.5
20260505001531 52 306 0.9 3.5 0.00 0.00 0.00 86 1015.5
20260505000032 52 303 1.7 4.3 0.00 0.00 0.00 86 1015.6
20260504234528 52 324 1.7 7.8 0.00 0.00 0.00 86 1015.6
20260504233028 52 291 0.9 4.3 0.00 0.00 0.00 86 1015.6
20260504231528 52 341 0.9 7.0 0.00 0.00 0.00 86 1015.6
20260504230028 52 316 1.7 7.0 0.00 0.00 0.00 86 1015.6
20260504224527 51 265 2.6 7.0 0.00 0.00 0.00 86 1015.7
20260504223034 51 0 0.9 6.1 0.00 0.00 0.00 87 1015.8
20260504221536 52 329 0.9 5.2 0.00 0.00 0.00 87 1015.8
20260504220030 51 327 0.0 5.2 0.00 0.00 0.00 87 1015.9
20260504214528 51 289 1.7 5.2 0.00 0.00 0.00 87 1015.9
20260504213027 52 17 1.7 4.3 0.00 0.00 0.00 87 1016.1
20260504211528 52 328 0.9 6.1 0.00 0.00 0.00 87 1016.1
20260504210030 52 5 0.9 4.3 0.00 0.00 0.00 87 1016.1
20260504204536 52 319 0.9 4.3 0.00 0.00 0.00 87 1016.1
20260504203032 51 306 0.9 4.3 0.00 0.00 0.00 87 1015.9
20260504201527 51 300 0.9 7.0 0.00 0.00 0.00 86 1015.8
20260504200029 51 319 1.7 7.0 0.00 0.00 0.00 86 1015.7
20260504194536 51 309 1.7 5.2 0.00 0.00 0.00 86 1015.6
20260504193028 51 306 1.7 5.2 0.00 0.00 0.00 85 1015.6
20260504191527 51 311 1.7 3.5 0.00 0.00 0.00 84 1015.4
20260504190035 51 286 1.7 5.2 0.00 0.00 0.00 84 1015.3
20260504184535 52 276 0.9 4.3 0.00 0.00 0.00 83 1015.4